SCP
0 0 0 0 0 0 0 0 0 0 0 0 0 0 0 0 0 0 0 0 0 0 0 0 0 0 0 0 0 0 0 0 0 0 0 0 0 0
0 0 0 0 0 0 0 0 0 0 0 0 0 0 0 0 0 0 0 0 0 0 0 0 0 0 0 0 0 0 0 0 0 0 0 0 0 0
0 0 0 0 0 0 0 0 0 0 0 0 0 0 0 0 0 0 0 0 0 0 0 0 0 0 0 0 0 0 0 0 0 0 0 0 0 0
0 0 0 0 0 0 0 0 0 0 0 0 0 0 0 0 0 0 0 0 0 0 0 0 0 0 0 0 0 0 0 0 0 0 0 0 0 0
0 0 0 0 0 0 0 0 0 0 0 0 0 0 0 0 0 0 0 0 0 0 0 0 0 0 0 0 0 0 0 0 0 0 0 0 0 0
0 0 0 0 0 0 0 0 0 0 0 0 0 0 0 0 0 0 0 0 0 0 0 0 0 0 0 0 0 0 0 0 0 0 0 0 0 0
0 0 0 0 0 0 0 0 0 0 0 0 0 0 0 0 0 0 0 0 0 0 0 0 0 0 0 0 0 0 0 0 0 0 0 0 0 0
0 0 0 0 1 1 0 0 0 0 0 0 0 0 0 0 0 0 0 0 0 0 0 0 0 0 0 0 0 0 0 0 0 0 0 0 0 0
1 0 1 0 0 0 0 0 0 0 0 0 0 0 0 0 0 0 0 0 0 0 0 0 0 0 0 0 0 0 0 0 0 0 0 0 0 0
1 1 1 1 0 0 0 0 0 0 0 0 0 0 0 0 0 0 0 0 0 0 0 0 0 0 0 0 0 0 0 0 0 0 0 0 0 0
1 1 1 0 0 0 0 0 0 0 0 0 0 0 0 0 0 0 0 0 0 0 0 0 0 0 0 0 0 0 0 0 0 0 0 0 0 0
0 0 0 0 1 0 0 0 0 0 0 0 0 0 0 0 0 0 0 0 0 0 0 0 0 0 0 0 0 0 0 0 0 0 0 0 0 0
0 0 0 0 0 0 0 0 0 0 0 0 0 0 0 0 0 0 0 0 0 0 0 0 0 0 0 0 0 0 0 0 0 0 0 0 0 0
1 0 0 0 0 0 0 0 0 0 0 0 0 0 0 0 0 0 0 0 0 0 0 0 0 0 0 0 0 0 0 0 0 0 0 0 0 0
0 0 0 0 0 0 0 0 0 0 0 0 0 0 0 0 0 0 0 0 0 0 0 0 0 0 0 0 0 0 -0 -0 0 0 0 0 0 0
0 0 0 0 0 0 0 0 0 0 0 0 0 0 0 0 0 0 0 0 0 0 0 0 0 0 0 0 0 0 0 0 0 0 0 0 0 0
0 0 0 0 0 0 0 0 0 0 0 0 0 0 0 0 0 0 0 0 0 0 0 0 0 0 0 0 0 0 0 0 0 0 -0 0 0 0
0 0 0 0 0 0 0 0 0 0 0 0 0 0 0 0 0 0 0 0 0 0 0 0 0 0 0 0 0 0 0 0 0 0 -0 -0 0 0
0 0 0 0 0 0 0 0 0 0 0 0 0 0 0 0 0 0 0 0 0 0 0 0 0 0 0 0 0 0 0 0 0 0 -0 0 -0 0
0 0 0 0 0 0 0 0 0 0 0 0 0 0 0 0 0 0 0 0 0 0 0 0 0 0 0 0 0 0 0 0 0 -0 -0 0 0 -0
0 0 0 0 0 0 0 0 0 0 0 0 0 0 0 0 0 0 0 0 0 0 0 0 0 0 0 0 0 0 0 0 0 -0 -0 0 0 0
0 0 0 0 0 0 0 0 0 0 0 0 0 0 0 0 0 0 0 0 0 0 0 0 0 0 0 -0 -0 0 0 0 0 -0 -0 -0 -0 0
0 0 0 0 0 0 0 0 0 0 0 0 0 0 0 0 0 0 0 0 0 0 0 0 0 0 0 -0 -0 0 -0 0 -0 -0 0 -0 -0 -0
Wind_Speed_500mb
18 22 32 36 30 22 14 14 14 13 17 17 15 9 14 19 20 22 25 36 37 45 41 37 31 30 33 34 35 38 42 42 43 44 44 41 40 39
22 23 23 26 31 27 24 20 18 19 22 27 23 16 11 19 26 33 36 38 42 47 49 40 35 38 38 39 39 35 36 40 46 48 50 50 48 46
30 29 26 24 23 34 32 25 23 24 22 25 22 20 27 32 28 31 33 39 44 51 40 43 43 42 38 40 40 39 38 40 38 40 45 51 55 53
33 37 39 32 30 31 39 34 29 25 27 29 29 30 34 29 33 37 37 36 45 45 43 52 46 45 35 47 49 50 52 47 44 37 40 40 44 52
38 39 38 35 33 32 29 30 26 25 31 36 40 38 34 28 31 28 33 39 41 47 48 36 38 41 47 43 42 46 53 53 51 48 46 48 43 43
47 43 41 42 37 33 31 31 29 32 31 30 36 45 43 37 37 39 47 52 55 37 31 34 41 46 52 57 59 59 50 48 47 49 50 53 56 55
50 54 48 47 42 38 37 36 35 34 33 35 42 53 56 53 46 43 44 48 47 43 49 55 61 64 62 64 68 67 64 67 65 56 54 56 56 56
51 55 52 50 48 45 43 40 37 43 45 46 55 53 49 44 41 37 38 43 51 56 56 65 58 53 45 39 34 32 34 35 41 48 63 68 67 67
52 54 56 54 53 52 52 48 46 45 48 49 56 49 39 42 37 44 45 49 58 60 47 52 42 45 39 39 37 36 39 45 56 66 65 67 71 80
57 53 53 57 58 54 51 47 49 51 52 54 57 46 40 39 38 45 48 55 58 45 43 55 51 57 47 47 51 48 50 58 67 76 81 79 86 90
58 57 54 57 54 49 48 48 50 55 54 53 54 37 36 37 41 45 51 58 58 59 58 58 55 53 61 72 73 60 54 59 66 63 68 77 83 89
59 58 60 60 57 45 44 47 54 52 48 47 31 29 35 40 46 39 42 57 58 57 47 51 55 56 70 67 70 67 72 81 73 74 85 94 93 91
51 53 53 48 40 37 36 37 38 45 40 33 34 38 38 29 25 30 28 30 37 44 45 43 51 55 63 73 72 81 80 81 82 88 92 94 91 80
50 45 43 39 31 29 30 34 34 31 27 31 38 34 19 21 22 32 40 40 36 40 45 49 59 56 54 66 80 82 81 80 82 87 88 91 84 79
41 42 34 32 34 32 34 25 19 19 17 19 23 18 24 32 34 37 40 38 41 46 41 30 44 41 61 67 70 76 77 79 78 82 91 90 101 109
41 35 39 34 32 17 9 12 10 13 18 25 22 18 28 31 37 37 35 42 38 32 35 37 34 51 53 58 70 68 72 83 94 87 98 104 96 92
23 30 31 23 9 7 13 15 16 22 27 22 19 22 34 40 39 36 29 29 33 38 40 39 44 50 53 67 56 67 74 79 88 98 96 102 104 97
20 19 15 10 11 17 25 26 25 24 22 21 26 28 32 33 29 25 29 29 33 37 42 47 44 54 60 67 60 64 65 77 92 96 89 86 111 103
12 9 14 19 19 21 9 13 16 20 17 17 23 25 30 31 23 25 27 32 33 39 44 39 43 53 62 70 61 50 61 73 86 90 82 82 99 98
6 3 4 11 6 11 11 15 17 18 20 22 24 29 30 18 21 23 27 29 34 38 45 32 47 45 53 52 53 57 54 70 76 80 76 84 84 60
13 11 10 16 12 12 16 22 28 33 36 36 10 3 8 14 20 20 26 24 32 37 31 45 42 36 49 53 52 57 59 74 68 64 62 72 85 79
13 17 16 17 19 22 27 31 33 31 13 7 9 10 13 17 17 23 23 29 31 35 35 47 34 41 45 54 55 57 70 72 78 64 43 36 54 58
19 18 20 23 23 23 16 11 3 2 8 13 17 20 21 13 19 23 19 24 29 31 36 39 45 38 37 50 53 52 64 67 84 78 62 30 26 29
Wind_Direction_500mb
214 216 212 214 214 214 223 248 255 262 275 240 293 339 229 259 290 289 302 310 315 316 314 317 309 302 304 304 303 292 284 279 277 277 277 274 272 277
234 214 207 200 215 219 227 234 243 259 265 283 299 293 269 277 289 297 306 310 314 314 303 299 302 303 304 304 305 300 294 290 285 281 280 279 275 270
229 229 226 223 230 223 226 228 240 255 267 271 282 288 296 295 292 298 297 300 298 306 305 293 295 301 298 294 294 293 299 303 302 295 287 279 276 274
230 229 232 235 239 222 224 237 251 239 251 268 275 279 280 283 289 291 295 288 289 303 302 305 292 286 300 304 280 282 287 295 296 294 296 296 284 276
234 230 234 231 227 218 216 222 237 247 254 262 271 275 274 276 288 291 284 283 293 296 295 288 282 283 285 292 289 283 280 280 282 287 291 284 284 281
238 240 240 240 234 225 227 240 245 248 255 272 284 283 274 267 272 287 288 293 300 295 286 277 276 275 274 278 281 279 276 272 271 279 279 278 271 270
235 239 243 241 236 234 237 239 248 257 266 284 298 301 285 276 276 285 295 302 302 301 293 291 289 287 285 282 280 276 276 277 275 274 276 277 277 271
237 241 243 243 241 236 240 248 258 261 264 277 302 306 296 286 289 291 297 306 307 311 313 306 299 295 299 296 295 287 278 282 278 281 284 281 279 273
243 244 245 244 240 240 248 255 256 263 265 285 301 303 289 301 292 297 302 308 309 310 306 308 323 317 319 312 301 303 304 296 285 279 276 277 276 276
248 249 253 248 246 251 259 268 269 273 277 286 297 295 288 289 286 292 299 302 303 307 308 301 316 311 312 309 308 295 287 279 276 276 277 278 280 279
248 249 256 254 250 254 263 268 276 276 278 290 296 280 278 288 297 294 295 294 293 302 304 303 304 305 308 304 306 307 303 301 300 286 289 296 294 291
248 245 258 253 258 257 267 272 276 279 286 291 278 281 287 296 297 291 298 296 297 301 309 310 312 317 313 312 313 309 310 313 309 300 297 299 301 295
253 261 261 256 258 261 266 271 279 285 283 278 279 284 294 294 298 298 292 300 308 309 320 315 313 310 307 308 310 314 316 318 313 309 305 301 298 289
256 260 255 245 239 248 260 272 279 271 280 289 290 292 277 298 288 292 294 305 307 307 308 305 304 305 305 312 314 312 314 319 318 314 309 307 301 290
249 250 242 247 248 259 277 274 273 285 283 320 324 305 312 300 292 296 297 297 299 300 305 307 309 304 308 308 313 319 324 320 321 321 314 303 294 298
243 241 240 246 269 253 266 276 250 276 298 302 297 297 289 290 298 303 305 310 314 319 323 324 313 320 317 313 319 321 322 321 324 321 308 309 307 307
229 235 246 243 231 293 294 286 262 295 300 298 278 278 287 294 304 308 315 319 320 324 325 324 318 315 315 324 321 321 324 323 327 322 320 316 314 314
223 219 218 247 289 300 297 275 271 275 282 274 277 273 284 302 317 320 319 318 322 325 326 328 324 324 328 330 329 328 328 328 331 329 323 322 318 324
201 224 250 269 271 285 267 265 264 259 258 244 254 273 294 305 311 316 317 327 326 326 327 325 326 330 333 332 330 339 332 332 331 328 325 326 324 327
190 179 182 245 193 200 193 212 214 221 224 246 270 283 290 296 309 307 324 327 329 330 333 335 336 334 340 334 326 339 352 342 339 329 327 326 330 337
184 210 181 211 230 218 232 241 253 262 272 289 292 358 318 305 299 310 325 320 334 335 335 338 336 334 344 346 341 347 350 359 354 341 335 346 346 350
193 218 235 249 256 265 273 277 279 284 275 283 279 296 286 294 299 323 315 334 340 333 336 340 339 328 345 355 355 353 356 355 2 2 349 5 7 5
230 256 273 275 281 287 284 298 340 173 272 252 255 261 274 287 325 327 325 342 342 332 342 345 345 329 347 359 358 1 5 7 16 13 9 356 23 16
Wind_Speed_850mb
18 22 32 36 30 22 14 14 14 13 17 17 15 9 14 19 20 22 25 36 37 45 41 37 31 30 33 34 35 38 42 42 43 44 44 41 40 39
22 23 23 26 31 27 24 20 18 19 22 27 23 16 11 19 26 33 36 38 42 47 49 40 35 38 38 39 39 35 36 40 46 48 50 50 48 46
30 29 26 24 23 34 32 25 23 24 22 25 22 20 27 32 28 31 33 39 44 51 40 43 43 42 38 40 40 39 38 40 38 40 45 51 55 53
33 37 39 32 30 31 39 34 29 25 27 29 29 30 34 29 33 37 37 36 45 45 43 52 46 45 35 47 49 50 52 47 44 37 40 40 44 52
38 39 38 35 33 32 29 30 26 25 31 36 40 38 34 28 31 28 33 39 41 47 48 36 38 41 47 43 42 46 53 53 51 48 46 48 43 43
47 43 41 42 37 33 31 31 29 32 31 30 36 45 43 37 37 39 47 52 55 37 31 34 41 46 52 57 59 59 50 48 47 49 50 53 56 55
50 54 48 47 42 38 37 36 35 34 33 35 42 53 56 53 46 43 44 48 47 43 49 55 61 64 62 64 68 67 64 67 65 56 54 56 56 56
51 55 52 50 48 45 43 40 37 43 45 46 55 53 49 44 41 37 38 43 51 56 56 65 58 53 45 39 34 32 34 35 41 48 63 68 67 67
52 54 56 54 53 52 52 48 46 45 48 49 56 49 39 42 37 44 45 49 58 60 47 52 42 45 39 39 37 36 39 45 56 66 65 67 71 80
57 53 53 57 58 54 51 47 49 51 52 54 57 46 40 39 38 45 48 55 58 45 43 55 51 57 47 47 51 48 50 58 67 76 81 79 86 90
58 57 54 57 54 49 48 48 50 55 54 53 54 37 36 37 41 45 51 58 58 59 58 58 55 53 61 72 73 60 54 59 66 63 68 77 83 89
59 58 60 60 57 45 44 47 54 52 48 47 31 29 35 40 46 39 42 57 58 57 47 51 55 56 70 67 70 67 72 81 73 74 85 94 93 91
51 53 53 48 40 37 36 37 38 45 40 33 34 38 38 29 25 30 28 30 37 44 45 43 51 55 63 73 72 81 80 81 82 88 92 94 91 80
50 45 43 39 31 29 30 34 34 31 27 31 38 34 19 21 22 32 40 40 36 40 45 49 59 56 54 66 80 82 81 80 82 87 88 91 84 79
41 42 34 32 34 32 34 25 19 19 17 19 23 18 24 32 34 37 40 38 41 46 41 30 44 41 61 67 70 76 77 79 78 82 91 90 101 109
41 35 39 34 32 17 9 12 10 13 18 25 22 18 28 31 37 37 35 42 38 32 35 37 34 51 53 58 70 68 72 83 94 87 98 104 96 92
23 30 31 23 9 7 13 15 16 22 27 22 19 22 34 40 39 36 29 29 33 38 40 39 44 50 53 67 56 67 74 79 88 98 96 102 104 97
20 19 15 10 11 17 25 26 25 24 22 21 26 28 32 33 29 25 29 29 33 37 42 47 44 54 60 67 60 64 65 77 92 96 89 86 111 103
12 9 14 19 19 21 9 13 16 20 17 17 23 25 30 31 23 25 27 32 33 39 44 39 43 53 62 70 61 50 61 73 86 90 82 82 99 98
6 3 4 11 6 11 11 15 17 18 20 22 24 29 30 18 21 23 27 29 34 38 45 32 47 45 53 52 53 57 54 70 76 80 76 84 84 60
13 11 10 16 12 12 16 22 28 33 36 36 10 3 8 14 20 20 26 24 32 37 31 45 42 36 49 53 52 57 59 74 68 64 62 72 85 79
13 17 16 17 19 22 27 31 33 31 13 7 9 10 13 17 17 23 23 29 31 35 35 47 34 41 45 54 55 57 70 72 78 64 43 36 54 58
19 18 20 23 23 23 16 11 3 2 8 13 17 20 21 13 19 23 19 24 29 31 36 39 45 38 37 50 53 52 64 67 84 78 62 30 26 29
Wind_Direction_850mb
214 216 212 214 214 214 223 248 255 262 275 240 293 339 229 259 290 289 302 310 315 316 314 317 309 302 304 304 303 292 284 279 277 277 277 274 272 277
234 214 207 200 215 219 227 234 243 259 265 283 299 293 269 277 289 297 306 310 314 314 303 299 302 303 304 304 305 300 294 290 285 281 280 279 275 270
229 229 226 223 230 223 226 228 240 255 267 271 282 288 296 295 292 298 297 300 298 306 305 293 295 301 298 294 294 293 299 303 302 295 287 279 276 274
230 229 232 235 239 222 224 237 251 239 251 268 275 279 280 283 289 291 295 288 289 303 302 305 292 286 300 304 280 282 287 295 296 294 296 296 284 276
234 230 234 231 227 218 216 222 237 247 254 262 271 275 274 276 288 291 284 283 293 296 295 288 282 283 285 292 289 283 280 280 282 287 291 284 284 281
238 240 240 240 234 225 227 240 245 248 255 272 284 283 274 267 272 287 288 293 300 295 286 277 276 275 274 278 281 279 276 272 271 279 279 278 271 270
235 239 243 241 236 234 237 239 248 257 266 284 298 301 285 276 276 285 295 302 302 301 293 291 289 287 285 282 280 276 276 277 275 274 276 277 277 271
237 241 243 243 241 236 240 248 258 261 264 277 302 306 296 286 289 291 297 306 307 311 313 306 299 295 299 296 295 287 278 282 278 281 284 281 279 273
243 244 245 244 240 240 248 255 256 263 265 285 301 303 289 301 292 297 302 308 309 310 306 308 323 317 319 312 301 303 304 296 285 279 276 277 276 276
248 249 253 248 246 251 259 268 269 273 277 286 297 295 288 289 286 292 299 302 303 307 308 301 316 311 312 309 308 295 287 279 276 276 277 278 280 279
248 249 256 254 250 254 263 268 276 276 278 290 296 280 278 288 297 294 295 294 293 302 304 303 304 305 308 304 306 307 303 301 300 286 289 296 294 291
248 245 258 253 258 257 267 272 276 279 286 291 278 281 287 296 297 291 298 296 297 301 309 310 312 317 313 312 313 309 310 313 309 300 297 299 301 295
253 261 261 256 258 261 266 271 279 285 283 278 279 284 294 294 298 298 292 300 308 309 320 315 313 310 307 308 310 314 316 318 313 309 305 301 298 289
256 260 255 245 239 248 260 272 279 271 280 289 290 292 277 298 288 292 294 305 307 307 308 305 304 305 305 312 314 312 314 319 318 314 309 307 301 290
249 250 242 247 248 259 277 274 273 285 283 320 324 305 312 300 292 296 297 297 299 300 305 307 309 304 308 308 313 319 324 320 321 321 314 303 294 298
243 241 240 246 269 253 266 276 250 276 298 302 297 297 289 290 298 303 305 310 314 319 323 324 313 320 317 313 319 321 322 321 324 321 308 309 307 307
229 235 246 243 231 293 294 286 262 295 300 298 278 278 287 294 304 308 315 319 320 324 325 324 318 315 315 324 321 321 324 323 327 322 320 316 314 314
223 219 218 247 289 300 297 275 271 275 282 274 277 273 284 302 317 320 319 318 322 325 326 328 324 324 328 330 329 328 328 328 331 329 323 322 318 324
201 224 250 269 271 285 267 265 264 259 258 244 254 273 294 305 311 316 317 327 326 326 327 325 326 330 333 332 330 339 332 332 331 328 325 326 324 327
190 179 182 245 193 200 193 212 214 221 224 246 270 283 290 296 309 307 324 327 329 330 333 335 336 334 340 334 326 339 352 342 339 329 327 326 330 337
184 210 181 211 230 218 232 241 253 262 272 289 292 358 318 305 299 310 325 320 334 335 335 338 336 334 344 346 341 347 350 359 354 341 335 346 346 350
193 218 235 249 256 265 273 277 279 284 275 283 279 296 286 294 299 323 315 334 340 333 336 340 339 328 345 355 355 353 356 355 2 2 349 5 7 5
230 256 273 275 281 287 284 298 340 173 272 252 255 261 274 287 325 327 325 342 342 332 342 345 345 329 347 359 358 1 5 7 16 13 9 356 23 16